[Date Prev][Date Next][Thread Prev][Thread Next] - [Date Index][Thread Index][Author Index]
2 Line ISS Keps 3-13
- Subject: [sarex] 2 Line ISS Keps 3-13
- From: "Dave Larsen PhD" <doc@xxxxxxxxxxx>
- Date: Sat, 13 Mar 2004 03:37:32 -0800
ISS
1 25544U 98067A 04073.18593936 .00019308 00000-0 18415-3 0 3636
2 25544 51.6281 94.7097 0010822 271.4614 132.5203 15.66732600303254
----
Via the sarex mailing list at AMSAT.ORG courtesy of AMSAT-NA.
To unsubscribe, send "unsubscribe sarex" to Majordomo@amsat.org
AMSAT Home